Location: Stamford Observatory
(41.1241°N, 73.5498°W)
Time: 23:44:30
(UTC-04:00)

IRS-P3 - Visible Passes

Search period start: 04 September 2015 00:00
Search period end: 14 September 2015 00:00
Orbit: 814 x 820 km, 98.7° (Epoch: 04 September)

Date Brightness Start Highest point End Pass type
(mag) Time Alt. Az. Time Alt. Az. Time Alt. Az.
04 Sep 5.8 02:19:42 10° NNE 02:22:21 29° NNE 02:22:21 29° NNE visible
04 Sep 5.9 04:00:59 10° NNW 04:03:38 18° NW 04:03:38 18° NW visible
05 Sep 6.3 01:58:21 10° NNE 02:00:23 22° NE 02:00:23 22° NE visible
05 Sep 5.7 03:38:44 10° N 03:41:41 24° NW 03:41:41 24° NW visible
06 Sep 6.6 01:37:15 10° NE 01:38:26 15° NE 01:38:26 15° NE visible
06 Sep 5.5 03:16:46 10° N 03:19:44 29° NNW 03:19:44 29° NNW visible
07 Sep 5.6 02:54:58 10° N 02:57:46 31° N 02:57:46 31° N visible
08 Sep 5.9 02:33:21 10° NNE 02:35:49 28° NNE 02:35:49 28° NNE visible
08 Sep 6.2 04:15:22 10° NNW 04:17:06 13° NW 04:17:06 13° NW visible
09 Sep 6.2 02:11:52 10° NNE 02:13:52 23° NNE 02:13:52 23° NNE visible
09 Sep 5.9 03:52:48 10° NNW 03:55:09 19° NW 03:55:09 19° NW visible
10 Sep 6.6 01:50:35 10° NNE 01:51:54 17° NE 01:51:54 17° NE visible
10 Sep 5.8 03:30:40 10° N 03:33:12 24° NNW 03:33:12 24° NNW visible
11 Sep 6.9 01:29:37 10° NE 01:29:57 11° NE 01:29:57 11° NE visible
11 Sep 5.8 03:08:46 10° N 03:11:14 27° N 03:11:14 27° N visible
12 Sep 5.9 02:47:02 10° N 02:49:17 26° N 02:49:17 26° N visible
12 Sep 6.4 04:30:31 10° NW 04:30:34 10° NW 04:30:34 10° NW visible
13 Sep 6.2 02:25:27 10° NNE 02:27:20 22° NNE 02:27:20 22° NNE visible
13 Sep 6.2 04:07:01 10° NNW 04:08:37 14° NW 04:08:37 14° NW visible
